When you browse on this site, cookies collect data to enhance your experience and personalize the content and advertising you see.
Visit our Privacy Policy to learn more. By continuing to use the site, you agree to this use of cookies and data.
  • In United Kingdom
  • List of Countries
  • For 7 days
  • Water Temperature
  • Weather Map
  • Weather Widgets
  • user-avatar
    Login

    Hourly Weather Slyudyanka

    Today, 15 November, Friday

    Time Temperature Precipitation Wind Pressure Humidity
    00:00 -14°C° 0 mm 1 mps 713 mmHg 88%
    01:00 -14°C° 0 mm 1 mps 713 mmHg 88%
    02:00 -15°C° 0 mm 1 mps 713 mmHg 88%
    03:00 -15°C° 0 mm 1 mps 713 mmHg 88%
    04:00 -15°C° 0 mm 1 mps 712 mmHg 88%
    05:00 -15°C° 0 mm 1 mps 713 mmHg 89%
    06:00 -15°C° 0 mm 1 mps 713 mmHg 90%
    07:00 -15°C° 0 mm 1 mps 713 mmHg 90%
    08:00 -14°C° 0 mm 1 mps 713 mmHg 87%
    09:00 -13°C° 0 mm 1 mps 713 mmHg 84%
    10:00 -11°C° 0 mm 1 mps 713 mmHg 81%
    11:00 -11°C° 0 mm 1 mps 713 mmHg 79%
    12:00 -10°C° 0 mm 1 mps 713 mmHg 78%
    13:00 -10°C° 0 mm 1 mps 712 mmHg 78%
    14:00 -11°C° 0 mm 1 mps 713 mmHg 82%
    15:00 -11°C° 0 mm 1 mps 713 mmHg 86%
    16:00 -12°C° 0 mm 1 mps 713 mmHg 91%
    17:00 -12°C° 0.1 mm 1 mps 713 mmHg 92%
    18:00 -13°C° 0.1 mm 1 mps 713 mmHg 93%
    19:00 -13°C° 0.1 mm 1 mps 714 mmHg 94%
    20:00 -13°C° 0.2 mm 1 mps 714 mmHg 94%
    21:00 -13°C° 0.2 mm 1 mps 714 mmHg 94%
    22:00 -13°C° 0.2 mm 1 mps 714 mmHg 94%
    23:00 -15°C° 0.2 mm 2 mps 715 mmHg 95%

    Tomorrow, 16 November, Saturday

    Time Temperature Precipitation Wind Pressure Humidity
    00:00 -15°C° 0.2 mm 2 mps 715 mmHg 95%
    01:00 -16°C° 0.2 mm 2 mps 715 mmHg 95%
    02:00 -16°C° 0.2 mm 2 mps 716 mmHg 95%
    03:00 -16°C° 0.2 mm 2 mps 716 mmHg 95%
    04:00 -16°C° 0.2 mm 2 mps 717 mmHg 95%
    05:00 -16°C° 0.3 mm 2 mps 718 mmHg 94%
    06:00 -17°C° 0.3 mm 3 mps 718 mmHg 94%
    07:00 -17°C° 0.3 mm 3 mps 719 mmHg 94%
    08:00 -18°C° 0.3 mm 3 mps 720 mmHg 93%
    09:00 -19°C° 0.3 mm 4 mps 721 mmHg 92%
    10:00 -21°C° 0.3 mm 5 mps 722 mmHg 91%
    11:00 -21°C° 0.2 mm 5 mps 722 mmHg 89%
    12:00 -20°C° 0.2 mm 4 mps 723 mmHg 88%
    13:00 -20°C° 0.2 mm 4 mps 723 mmHg 87%
    14:00 -22°C° 0.1 mm 4 mps 724 mmHg 88%
    15:00 -22°C° 0.1 mm 4 mps 725 mmHg 89%
    16:00 -22°C° 0.1 mm 3 mps 725 mmHg 90%
    17:00 -22°C° 0.1 mm 3 mps 726 mmHg 91%
    18:00 -23°C° 0.1 mm 3 mps 727 mmHg 91%
    19:00 -21°C° 0.1 mm 2 mps 728 mmHg 92%
    20:00 -21°C° 0 mm 2 mps 729 mmHg 91%
    21:00 -23°C° 0 mm 2 mps 729 mmHg 91%
    22:00 -23°C° 0 mm 2 mps 730 mmHg 90%
    23:00 -24°C° 0 mm 2 mps 730 mmHg 90%

    Day after tomorrow, 17 November, Sunday

    Time Temperature Precipitation Wind Pressure Humidity
    00:00 -24°C° 0 mm 2 mps 730 mmHg 90%
    01:00 -25°C° 0 mm 2 mps 730 mmHg 89%
    02:00 -25°C° 0 mm 2 mps 730 mmHg 89%
    03:00 -26°C° 0 mm 2 mps 730 mmHg 88%
    04:00 -26°C° 0 mm 2 mps 730 mmHg 87%
    05:00 -26°C° 0 mm 2 mps 730 mmHg 87%
    06:00 -27°C° 0 mm 2 mps 730 mmHg 87%
    07:00 -27°C° 0 mm 2 mps 730 mmHg 86%
    08:00 -25°C° 0 mm 2 mps 729 mmHg 81%
    09:00 -23°C° 0 mm 2 mps 729 mmHg 76%
    10:00 -18°C° 0 mm 1 mps 729 mmHg 71%
    11:00 -17°C° 0 mm 1 mps 728 mmHg 67%
    12:00 -15°C° 0 mm 1 mps 728 mmHg 63%
    13:00 -14°C° 0 mm 0 mps 727 mmHg 58%
    14:00 -15°C° 0 mm 0 mps 726 mmHg 66%
    15:00 -17°C° 0 mm 1 mps 726 mmHg 74%
    16:00 -18°C° 0 mm 1 mps 725 mmHg 82%
    17:00 -18°C° 0 mm 1 mps 725 mmHg 81%
    18:00 -19°C° 0 mm 1 mps 725 mmHg 80%
    19:00 -21°C° 0 mm 2 mps 725 mmHg 80%
    20:00 -21°C° 0 mm 2 mps 725 mmHg 78%
    21:00 -21°C° 0 mm 2 mps 724 mmHg 76%
    22:00 -20°C° 0 mm 2 mps 724 mmHg 74%
    23:00 -20°C° 0 mm 2 mps 724 mmHg 74%

    18 November, Monday

    Time Temperature Precipitation Wind Pressure Humidity
    00:00 -20°C° 0 mm 2 mps 723 mmHg 74%
    01:00 -20°C° 0 mm 2 mps 723 mmHg 74%
    02:00 -20°C° 0 mm 2 mps 723 mmHg 75%
    03:00 -20°C° 0 mm 2 mps 723 mmHg 75%
    04:00 -20°C° 0 mm 2 mps 723 mmHg 75%
    05:00 -20°C° 0 mm 2 mps 723 mmHg 76%
    06:00 -20°C° 0 mm 2 mps 723 mmHg 76%
    07:00 -20°C° 0 mm 2 mps 723 mmHg 76%
    08:00 -16°C° 0 mm 1 mps 723 mmHg 73%
    09:00 -14°C° 0 mm 1 mps 723 mmHg 71%
    10:00 -12°C° 0 mm 1 mps 723 mmHg 68%
    11:00 -10°C° 0 mm 1 mps 722 mmHg 66%
    12:00 -9°C° 0 mm 1 mps 722 mmHg 65%
    13:00 -8°C° 0 mm 0 mps 721 mmHg 63%
    14:00 -9°C° 0 mm 0 mps 721 mmHg 71%
    15:00 -11°C° 0 mm 1 mps 720 mmHg 78%
    16:00 -12°C° 0 mm 1 mps 720 mmHg 85%
    17:00 -13°C° 0 mm 1 mps 719 mmHg 84%
    18:00 -13°C° 0 mm 1 mps 719 mmHg 83%
    19:00 -14°C° 0 mm 1 mps 719 mmHg 82%
    20:00 -16°C° 0 mm 2 mps 718 mmHg 81%
    21:00 -15°C° 0 mm 2 mps 718 mmHg 79%
    22:00 -15°C° 0 mm 2 mps 717 mmHg 78%
    23:00 -15°C° 0 mm 2 mps 717 mmHg 77%

    19 November, Tuesday

    Time Temperature Precipitation Wind Pressure Humidity
    00:00 -13°C° 0 mm 1 mps 716 mmHg 76%
    01:00 -12°C° 0 mm 1 mps 716 mmHg 76%
    02:00 -12°C° 0 mm 1 mps 716 mmHg 76%
    03:00 -12°C° 0 mm 1 mps 715 mmHg 76%
    04:00 -11°C° 0 mm 1 mps 715 mmHg 76%
    05:00 -11°C° 0 mm 1 mps 715 mmHg 76%
    06:00 -11°C° 0 mm 1 mps 715 mmHg 77%
    07:00 -10°C° 0 mm 1 mps 715 mmHg 77%
    08:00 -10°C° 0.2 mm 1 mps 715 mmHg 81%
    09:00 -9°C° 0.2 mm 1 mps 716 mmHg 86%
    10:00 -8°C° 0.2 mm 1 mps 716 mmHg 90%
    11:00 -7°C° 0.1 mm 1 mps 716 mmHg 87%
    12:00 -6°C° 0.1 mm 1 mps 716 mmHg 83%
    13:00 -4°C° 0.1 mm 1 mps 716 mmHg 80%
    14:00 -6°C° 0 mm 1 mps 716 mmHg 82%
    15:00 -7°C° 0 mm 1 mps 716 mmHg 84%
    16:00 -8°C° 0 mm 0 mps 716 mmHg 86%
    17:00 -9°C° 0 mm 1 mps 717 mmHg 86%
    18:00 -10°C° 0 mm 1 mps 717 mmHg 86%
    19:00 -12°C° 0 mm 2 mps 717 mmHg 85%
    20:00 -12°C° 0 mm 2 mps 717 mmHg 84%
    21:00 -12°C° 0 mm 2 mps 717 mmHg 83%
    22:00 -12°C° 0 mm 2 mps 717 mmHg 82%
    23:00 -12°C° 0 mm 2 mps 716 mmHg 83%

    20 November, Wednesday

    Time Temperature Precipitation Wind Pressure Humidity
    00:00 -13°C° 0 mm 2 mps 716 mmHg 83%
    01:00 -13°C° 0 mm 2 mps 716 mmHg 83%
    02:00 -13°C° 0 mm 2 mps 715 mmHg 82%
    03:00 -13°C° 0 mm 2 mps 715 mmHg 82%
    04:00 -13°C° 0 mm 2 mps 715 mmHg 81%
    05:00 -12°C° 0 mm 2 mps 715 mmHg 80%
    06:00 -12°C° 0 mm 2 mps 714 mmHg 78%
    07:00 -9°C° 0 mm 1 mps 714 mmHg 77%
    08:00 -8°C° 0 mm 1 mps 714 mmHg 76%
    09:00 -7°C° 0 mm 1 mps 714 mmHg 75%
    10:00 -6°C° 0 mm 1 mps 714 mmHg 74%
    11:00 -3°C° 0 mm 1 mps 714 mmHg 72%
    12:00 -2°C° 0 mm 1 mps 714 mmHg 70%
    13:00 -2°C° 0 mm 0 mps 713 mmHg 68%
    14:00 -3°C° 0 mm 0 mps 714 mmHg 74%
    15:00 -5°C° 0 mm 0 mps 714 mmHg 80%
    16:00 -7°C° 0 mm 0 mps 714 mmHg 85%
    17:00 -7°C° 0 mm 0 mps 714 mmHg 85%
    18:00 -7°C° 0 mm 1 mps 714 mmHg 84%
    19:00 -7°C° 0 mm 1 mps 714 mmHg 84%
    20:00 -7°C° 0 mm 1 mps 714 mmHg 84%
    21:00 -7°C° 0 mm 1 mps 714 mmHg 83%
    22:00 -8°C° 0 mm 2 mps 714 mmHg 83%
    23:00 -8°C° 0 mm 2 mps 714 mmHg 83%
    Show more